Flag for Germany Weather past 2 weeks in Viersen, North Rhine-Westphalia, Germany

Now
54 °F

Passing clouds.


Feels Like: 48 °F
Forecast: 44 / 54 °F
Wind: 24 mph from Southwest

Location: Duesseldorf

Current Time: Dec 19, 2014 at 12:24:10 AM

Latest Report: Dec 18, 2014 at 11:50 PM


Visibility: N/A

Pressure: 29.89 "Hg

Humidity: 88%

Dew point: 50 °F

Location of ViersenLocation

Historic Weather in Viersen — Graph

°F

Viersen temperature yesterday

Maximum temperature yesterday: 55 °F (at 4:50 PM)
Minimum temperature yesterday: 50 °F (at 12:20 AM)
Average temperature yesterday: 53 °F

Past Weeks' High & Low Weather Summary

 TemperatureHumidityPressure
High55 °F (Dec 18, 4:50 PM)100% (Dec 8, 5:20 AM)30.36 "Hg (Dec 8, 5:20 AM)
Low30 °F (Dec 3, 11:20 PM)61% (Dec 7, 1:50 PM)29.42 "Hg (Dec 12, 12:50 PM)
Average41 °F86%29.96 "Hg
* Reported Dec 3 11:20 PM — Dec 18 11:20 PM, Viersen, Weather by CustomWeather, © 2014

Note: Actual official high and low records may vary slightly from our data, if they occured in-between our weather recording intervals... More about our weather records

Advertising

Viersen weather history for previous 24 hours

 ConditionsComfort  
Time TempWeatherWind HumidityBarometerVisibility
11:20 PM
Dec 18
54 °FPassing clouds.22 mph88%29.89 "HgN/A
10:50 PM54 °FPassing clouds.22 mph88%29.89 "HgN/A
10:20 PM54 °FPassing clouds.24 mph88%29.89 "HgN/A
9:20 PM54 °FDrizzle. Mostly cloudy.21 mph94%29.89 "HgN/A
8:50 PM54 °FDrizzle. Mostly cloudy.20 mph88%29.89 "HgN/A
8:20 PM54 °FPassing clouds.22 mph88%29.89 "HgN/A
7:50 PM54 °FPassing clouds.25 mph88%29.89 "HgN/A
7:20 PM55 °FPassing clouds.25 mph82%29.89 "HgN/A
6:50 PM55 °FPassing clouds.22 mph82%29.89 "HgN/A
6:20 PM55 °FPassing clouds.25 mph82%29.86 "HgN/A
5:50 PM55 °FPassing clouds.23 mph88%29.86 "HgN/A
5:20 PM55 °FPassing clouds.18 mph94%29.86 "HgN/A
4:50 PM55 °FPartly cloudy.17 mph94%29.86 "HgN/A
4:20 PM54 °FBroken clouds.16 mph94%29.83 "Hg5 mi
3:50 PM54 °FDrizzle. Broken clouds.16 mph94%29.83 "Hg4 mi
3:20 PM54 °FDrizzle. Broken clouds.14 mph94%29.83 "Hg4 mi
2:50 PM54 °FDrizzle. Broken clouds.13 mph94%29.83 "Hg4 mi
2:20 PM54 °FDrizzle. Broken clouds.12 mph94%29.86 "Hg4 mi
1:50 PM54 °FDrizzle. Fog.15 mph94%29.86 "Hg3 mi
1:20 PM54 °FDrizzle. Broken clouds.15 mph94%29.83 "Hg4 mi
12:50 PM54 °FBroken clouds.14 mph94%29.83 "HgN/A
12:20 PM54 °FBroken clouds.15 mph94%29.83 "HgN/A
11:50 AM54 °FBroken clouds.12 mph94%29.86 "HgN/A
11:20 AM52 °FPartly sunny.12 mph100%29.86 "Hg5 mi
10:50 AM52 °FDrizzle. Fog.13 mph100%29.86 "Hg2 mi
10:20 AM52 °FDrizzle. Fog.12 mph100%29.86 "Hg1 mi
9:50 AM52 °FDrizzle. Fog.12 mph94%29.83 "Hg3 mi
9:20 AM52 °FBroken clouds.12 mph94%29.83 "Hg5 mi
8:50 AM52 °FPartly sunny.12 mph100%29.83 "Hg4 mi
8:20 AM52 °FPartly cloudy.10 mph100%29.83 "Hg4 mi
7:50 AM52 °FPartly cloudy.13 mph100%29.80 "Hg4 mi
7:20 AM52 °FPassing clouds.14 mph100%29.83 "Hg4 mi
6:50 AM52 °FDrizzle. Fog.12 mph100%29.80 "Hg2 mi
6:20 AM52 °FDrizzle. Fog.10 mph94%29.80 "Hg3 mi
5:50 AM52 °FDrizzle. Low clouds.9 mph94%29.80 "Hg5 mi
5:20 AM52 °FOvercast.9 mph94%29.80 "HgN/A
4:20 AM52 °FOvercast.9 mph94%29.83 "Hg6 mi
3:50 AM50 °FPassing clouds.10 mph100%29.83 "Hg6 mi
3:20 AM50 °FPassing clouds.10 mph100%29.83 "Hg4 mi
2:50 AM50 °FMostly cloudy.9 mph100%29.83 "Hg4 mi
2:20 AM50 °FFog.10 mph100%29.83 "Hg2 mi
1:50 AM50 °FFog.9 mph100%29.83 "Hg2 mi
1:20 AM50 °FFog.10 mph100%29.83 "Hg3 mi
12:50 AM50 °FFog.8 mph100%29.83 "Hg2 mi
12:20 AM50 °FDrizzle. Fog.8 mph100%29.83 "Hg2 mi
Weather by CustomWeather, © 2014

See weather overviewHow to use our weather pages